Time,TemperatureF,DewpointF,PressureIn,WindDirection,WindDirectionDegrees,WindSpeedMPH,WindSpeedGustMPH,Humidity,HourlyPrecipIn,Conditions,Clouds,dailyrainin,SolarRadiationWatts/m^2,SoftwareType,DateUTC
2013-10-24 00:22:00,39.0,37.0,-100.00,North,351,5.0,6.0,92,0.00,,,0.00,0.000000,,2013-10-24 05:22:00,
2013-10-24 00:33:00,39.0,37.0,-100.00,North,351,5.0,6.0,92,0.00,,,0.00,0.000000,,2013-10-24 05:33:00,
2013-10-24 00:43:00,39.0,37.0,-100.00,North,351,5.0,6.0,92,0.00,,,0.00,0.000000,,2013-10-24 05:43:00,
2013-10-24 00:53:00,39.0,37.0,-100.00,North,351,5.0,6.0,92,0.00,,,0.00,0.000000,,2013-10-24 05:53:00,
2013-10-24 01:22:00,40.0,38.0,-100.00,NNW,338,4.0,6.0,92,0.00,,,0.00,0.000000,,2013-10-24 06:22:00,
2013-10-24 01:32:00,40.0,38.0,-100.00,NNW,338,4.0,6.0,92,0.00,,,0.00,0.000000,,2013-10-24 06:32:00,
2013-10-24 01:42:00,40.0,38.0,-100.00,NNW,338,4.0,6.0,92,0.00,,,0.00,0.000000,,2013-10-24 06:42:00,
2013-10-24 01:52:00,40.0,38.0,-100.00,NNW,338,4.0,6.0,92,0.00,,,0.00,0.000000,,2013-10-24 06:52:00,
2013-10-24 02:22:00,40.0,37.0,-100.00,North,359,6.0,9.0,89,0.00,,,0.00,0.000000,,2013-10-24 07:22:00,
2013-10-24 02:32:00,40.0,37.0,-100.00,North,359,6.0,9.0,89,0.00,,,0.00,0.000000,,2013-10-24 07:32:00,
2013-10-24 02:42:00,40.0,37.0,-100.00,North,359,6.0,9.0,89,0.00,,,0.00,0.000000,,2013-10-24 07:42:00,
2013-10-24 02:52:00,40.0,37.0,-100.00,North,359,6.0,9.0,89,0.00,,,0.00,0.000000,,2013-10-24 07:52:00,
2013-10-24 03:22:00,39.0,37.0,-100.00,NNW,347,5.0,8.0,91,0.00,,,0.00,0.000000,,2013-10-24 08:22:00,
2013-10-24 03:32:00,39.0,37.0,-100.00,NNW,347,5.0,8.0,91,0.00,,,0.00,0.000000,,2013-10-24 08:32:00,
2013-10-24 03:42:00,39.0,37.0,-100.00,NNW,347,5.0,8.0,91,0.00,,,0.00,0.000000,,2013-10-24 08:42:00,
2013-10-24 03:53:00,39.0,37.0,-100.00,NNW,347,5.0,8.0,91,0.00,,,0.00,0.000000,,2013-10-24 08:53:00,
2013-10-24 04:22:00,40.0,37.0,-100.00,NNW,345,8.0,12.0,89,0.00,,,0.00,0.000000,,2013-10-24 09:22:00,
2013-10-24 04:33:00,40.0,37.0,-100.00,NNW,345,8.0,12.0,89,0.00,,,0.00,0.000000,,2013-10-24 09:33:00,
2013-10-24 04:43:00,40.0,37.0,-100.00,NNW,345,8.0,12.0,89,0.00,,,0.00,0.000000,,2013-10-24 09:43:00,
2013-10-24 04:53:00,40.0,37.0,-100.00,NNW,345,8.0,12.0,89,0.00,,,0.00,0.000000,,2013-10-24 09:53:00,
2013-10-24 05:23:00,38.0,32.0,-100.00,North,353,13.0,21.0,80,0.00,,,0.00,0.000000,,2013-10-24 10:23:00,
2013-10-24 05:33:00,38.0,32.0,-100.00,North,353,13.0,21.0,80,0.00,,,0.00,0.000000,,2013-10-24 10:33:00,
2013-10-24 05:43:00,38.0,32.0,-100.00,North,353,13.0,21.0,80,0.00,,,0.00,0.000000,,2013-10-24 10:43:00,
2013-10-24 05:52:00,38.0,32.0,-100.00,North,353,13.0,21.0,80,0.00,,,0.00,0.000000,,2013-10-24 10:52:00,
2013-10-24 06:22:00,37.0,31.0,-100.00,North,356,10.0,16.0,79,0.00,,,0.00,0.000000,,2013-10-24 11:22:00,
2013-10-24 06:33:00,37.0,31.0,-100.00,North,356,10.0,16.0,79,0.00,,,0.00,0.000000,,2013-10-24 11:33:00,
2013-10-24 06:42:00,37.0,31.0,-100.00,North,356,10.0,16.0,79,0.00,,,0.00,0.000000,,2013-10-24 11:42:00,
2013-10-24 06:52:00,37.0,31.0,-100.00,North,356,10.0,16.0,79,0.00,,,0.00,0.000000,,2013-10-24 11:52:00,
2013-10-24 07:22:00,36.0,31.0,-100.00,North,354,7.0,18.0,81,0.00,,,0.00,0.000000,,2013-10-24 12:22:00,
2013-10-24 07:32:00,36.0,31.0,-100.00,North,354,7.0,18.0,81,0.00,,,0.00,0.000000,,2013-10-24 12:32:00,
2013-10-24 07:42:00,36.0,31.0,-100.00,North,354,7.0,18.0,81,0.00,,,0.00,0.000000,,2013-10-24 12:42:00,
2013-10-24 07:52:00,36.0,31.0,-100.00,North,354,7.0,18.0,81,0.00,,,0.00,0.000000,,2013-10-24 12:52:00,
2013-10-24 08:22:00,36.0,31.0,-100.00,NNW,341,5.0,10.0,83,0.00,,,0.00,0.000000,,2013-10-24 13:22:00,
2013-10-24 08:32:00,36.0,31.0,-100.00,NNW,341,5.0,10.0,83,0.00,,,0.00,0.000000,,2013-10-24 13:32:00,
2013-10-24 08:42:00,36.0,31.0,-100.00,NNW,341,5.0,10.0,83,0.00,,,0.00,0.000000,,2013-10-24 13:42:00,
2013-10-24 08:52:00,36.0,31.0,-100.00,NNW,341,5.0,10.0,83,0.00,,,0.00,0.000000,,2013-10-24 13:52:00,
2013-10-24 09:22:00,36.0,29.0,-100.00,NNW,345,8.0,12.0,76,0.00,,,0.00,0.000000,,2013-10-24 14:22:00,
2013-10-24 09:32:00,36.0,29.0,-100.00,NNW,345,8.0,12.0,76,0.00,,,0.00,0.000000,,2013-10-24 14:32:00,
2013-10-24 09:42:00,36.0,29.0,-100.00,NNW,345,8.0,12.0,76,0.00,,,0.00,0.000000,,2013-10-24 14:42:00,
2013-10-24 09:51:00,36.0,29.0,-100.00,NNW,345,8.0,12.0,76,0.00,,,0.00,0.000000,,2013-10-24 14:51:00,
2013-10-24 10:21:00,37.0,28.0,-100.00,North,3,8.0,13.0,70,0.00,,,0.00,0.000000,,2013-10-24 15:21:00,
2013-10-24 10:33:00,37.0,28.0,-100.00,North,3,8.0,13.0,70,0.00,,,0.00,0.000000,,2013-10-24 15:33:00,
2013-10-24 10:43:00,37.0,28.0,-100.00,North,3,8.0,13.0,70,0.00,,,0.00,0.000000,,2013-10-24 15:43:00,
2013-10-24 10:53:00,37.0,28.0,-100.00,North,3,8.0,13.0,70,0.00,,,0.00,0.000000,,2013-10-24 15:53:00,
2013-10-24 11:23:00,41.0,27.0,-100.00,NNE,12,9.0,13.0,56,0.00,,,0.00,0.000000,,2013-10-24 16:23:00,
2013-10-24 11:32:00,41.0,27.0,-100.00,NNE,12,9.0,13.0,56,0.00,,,0.00,0.000000,,2013-10-24 16:32:00,
2013-10-24 11:42:00,41.0,27.0,-100.00,NNE,12,9.0,13.0,56,0.00,,,0.00,0.000000,,2013-10-24 16:42:00,
2013-10-24 11:53:00,41.0,27.0,-100.00,NNE,12,9.0,13.0,56,0.00,,,0.00,0.000000,,2013-10-24 16:53:00,
2013-10-24 12:22:00,42.0,25.0,-100.00,NNW,341,6.0,13.0,51,0.00,,,0.00,0.000000,,2013-10-24 17:22:00,
2013-10-24 12:34:00,42.0,25.0,-100.00,NNW,341,6.0,13.0,51,0.00,,,0.00,0.000000,,2013-10-24 17:34:00,
2013-10-24 12:43:00,42.0,25.0,-100.00,NNW,341,6.0,13.0,51,0.00,,,0.00,0.000000,,2013-10-24 17:43:00,
2013-10-24 12:52:00,42.0,25.0,-100.00,NNW,341,6.0,13.0,51,0.00,,,0.00,0.000000,,2013-10-24 17:52:00,
2013-10-24 13:23:00,44.0,24.0,-100.00,NNW,332,7.0,13.0,45,0.00,,,-99.99,0.000000,,2013-10-24 18:23:00,
2013-10-24 13:32:00,44.0,24.0,-100.00,NNW,332,7.0,13.0,45,0.00,,,-99.99,0.000000,,2013-10-24 18:32:00,
2013-10-24 13:42:00,44.0,24.0,-100.00,NNW,332,7.0,13.0,45,0.00,,,-99.99,0.000000,,2013-10-24 18:42:00,
2013-10-24 13:53:00,44.0,24.0,-100.00,NNW,332,7.0,13.0,45,0.00,,,-99.99,0.000000,,2013-10-24 18:53:00,
2013-10-24 14:22:00,45.0,23.0,-100.00,NNE,29,5.0,11.0,41,0.00,,,0.00,0.000000,,2013-10-24 19:22:00,
2013-10-24 14:32:00,45.0,23.0,-100.00,NNE,29,5.0,11.0,41,0.00,,,0.00,0.000000,,2013-10-24 19:32:00,
2013-10-24 14:43:00,45.0,23.0,-100.00,NNE,29,5.0,11.0,41,0.00,,,0.00,0.000000,,2013-10-24 19:43:00,
2013-10-24 14:53:00,45.0,23.0,-100.00,NNE,29,5.0,11.0,41,0.00,,,0.00,0.000000,,2013-10-24 19:53:00,
2013-10-24 15:23:00,48.0,25.0,-100.00,SSW,208,4.0,10.0,40,0.00,,,0.00,0.000000,,2013-10-24 20:23:00,
2013-10-24 15:32:00,48.0,25.0,-100.00,SSW,208,4.0,10.0,40,0.00,,,0.00,0.000000,,2013-10-24 20:32:00,
2013-10-24 15:42:00,48.0,25.0,-100.00,SSW,208,4.0,10.0,40,0.00,,,0.00,0.000000,,2013-10-24 20:42:00,
2013-10-24 15:53:00,48.0,25.0,-100.00,SSW,208,4.0,10.0,40,0.00,,,0.00,0.000000,,2013-10-24 20:53:00,
2013-10-24 16:22:00,47.0,20.0,-100.00,NNW,340,4.0,9.0,34,0.00,,,0.00,0.000000,,2013-10-24 21:22:00,
2013-10-24 16:34:00,47.0,20.0,-100.00,NNW,340,4.0,9.0,34,0.00,,,0.00,0.000000,,2013-10-24 21:34:00,
2013-10-24 16:43:00,47.0,20.0,-100.00,NNW,340,4.0,9.0,34,0.00,,,0.00,0.000000,,2013-10-24 21:43:00,
2013-10-24 16:54:00,47.0,20.0,-100.00,NNW,340,4.0,9.0,34,0.00,,,0.00,0.000000,,2013-10-24 21:54:00,
2013-10-24 17:24:00,46.0,22.0,-100.00,West,274,1.0,7.0,39,0.00,,,0.00,0.000000,,2013-10-24 22:24:00,
2013-10-24 17:34:00,46.0,22.0,-100.00,West,274,1.0,7.0,39,0.00,,,0.00,0.000000,,2013-10-24 22:34:00,
2013-10-24 17:43:00,46.0,22.0,-100.00,West,274,1.0,7.0,39,0.00,,,0.00,0.000000,,2013-10-24 22:43:00,
2013-10-24 17:54:00,46.0,22.0,-100.00,West,274,1.0,7.0,39,0.00,,,0.00,0.000000,,2013-10-24 22:54:00,
2013-10-24 18:22:00,45.0,24.0,-100.00,SW,227,4.0,6.0,43,0.00,,,0.00,0.000000,,2013-10-24 23:22:00,
2013-10-24 18:34:00,45.0,24.0,-100.00,SW,227,4.0,6.0,43,0.00,,,0.00,0.000000,,2013-10-24 23:34:00,
2013-10-24 18:43:00,45.0,24.0,-100.00,SW,227,4.0,6.0,43,0.00,,,0.00,0.000000,,2013-10-24 23:43:00,
2013-10-24 18:53:00,45.0,24.0,-100.00,SW,227,4.0,6.0,43,0.00,,,0.00,0.000000,,2013-10-24 23:53:00,
2013-10-24 19:22:00,42.0,29.0,-100.00,SW,220,4.0,5.0,60,0.00,,,0.00,0.000000,,2013-10-25 00:22:00,
2013-10-24 19:33:00,42.0,29.0,-100.00,SW,220,4.0,5.0,60,0.00,,,0.00,0.000000,,2013-10-25 00:33:00,
2013-10-24 19:42:00,42.0,29.0,-100.00,SW,220,4.0,5.0,60,0.00,,,0.00,0.000000,,2013-10-25 00:42:00,
2013-10-24 19:52:00,42.0,29.0,-100.00,SW,220,4.0,5.0,60,0.00,,,0.00,0.000000,,2013-10-25 00:52:00,
2013-10-24 20:22:00,41.0,32.0,-100.00,SW,234,2.0,4.0,69,0.00,,,0.00,0.000000,,2013-10-25 01:22:00,
2013-10-24 20:32:00,41.0,32.0,-100.00,SW,234,2.0,4.0,69,0.00,,,0.00,0.000000,,2013-10-25 01:32:00,
2013-10-24 20:43:00,41.0,32.0,-100.00,SW,234,2.0,4.0,69,0.00,,,0.00,0.000000,,2013-10-25 01:43:00,
2013-10-24 20:53:00,41.0,32.0,-100.00,SW,234,2.0,4.0,69,0.00,,,0.00,0.000000,,2013-10-25 01:53:00,
2013-10-24 21:23:00,40.0,32.0,-100.00,SSW,201,3.0,4.0,73,0.00,,,0.00,0.000000,,2013-10-25 02:23:00,
2013-10-24 21:32:00,40.0,32.0,-100.00,SSW,201,3.0,4.0,73,0.00,,,0.00,0.000000,,2013-10-25 02:32:00,
2013-10-24 21:42:00,40.0,32.0,-100.00,SSW,201,3.0,4.0,73,0.00,,,0.00,0.000000,,2013-10-25 02:42:00,
2013-10-24 21:52:00,40.0,32.0,-100.00,SSW,201,3.0,4.0,73,0.00,,,0.00,0.000000,,2013-10-25 02:52:00,
2013-10-24 22:23:00,40.0,32.0,-100.00,South,174,5.0,5.0,74,0.00,,,0.00,0.000000,,2013-10-25 03:23:00,
2013-10-24 22:34:00,40.0,32.0,-100.00,South,174,5.0,5.0,74,0.00,,,0.00,0.000000,,2013-10-25 03:34:00,
2013-10-24 22:44:00,40.0,32.0,-100.00,South,174,5.0,5.0,74,0.00,,,0.00,0.000000,,2013-10-25 03:44:00,
2013-10-24 22:54:00,40.0,32.0,-100.00,South,174,5.0,5.0,74,0.00,,,0.00,0.000000,,2013-10-25 03:54:00,
2013-10-24 23:24:00,40.0,34.0,-100.00,South,177,6.0,7.0,78,0.00,,,0.00,0.000000,,2013-10-25 04:24:00,
2013-10-24 23:34:00,40.0,34.0,-100.00,South,177,6.0,7.0,78,0.00,,,0.00,0.000000,,2013-10-25 04:34:00,
2013-10-24 23:44:00,40.0,34.0,-100.00,South,177,6.0,7.0,78,0.00,,,0.00,0.000000,,2013-10-25 04:44:00,
2013-10-24 23:54:00,40.0,34.0,-100.00,South,177,6.0,7.0,78,0.00,,,0.00,0.000000,,2013-10-25 04:54:00,